Estación meteorológica de Cercs - La Baells (Berguedà, Cercs)

Consulta los datos en tiempo real de la estación meteorológica de Cercs - La Baells





Hora UTC 05:05
Temperatura 16.6 ºC
Humedad 90.9 %
Presión 1020.2 hPa
Pluja 0.0 mm
Velocidad viento 0.0 km/h
Dirección viento SSE

Datos diarios 2026-09-02



Hora UTC (invierno +1h; verano +2h)
DADES NO VALIDADES
Temperatura (ºC) Humedad (%) Presión (hPa) Velocidad viento (km/h) Precipitación (mm)
Hora UTC Aire Humedad Presión Vel. Dir. Vel. Max Dir. Intent. máx 5 min.
00:05 18.5 86.9 1020.2 0.8 NW 0.8 NW 0.0
00:10 18.5 86.7 1020.2 0.4 NNW 0.8 NW 0.0
00:15 18.5 86.7 1020.2 0.3 NNW 0.8 NW 0.0
00:20 18.4 87.1 1020.2 0.6 NNW 0.8 NW 0.0
00:25 18.4 87.2 1020.2 0.6 NW 0.8 NW 0.0
00:30 18.5 86.5 1020.2 0.2 SSW 0.8 NW 0.0
00:35 18.5 86.4 1020.2 0.2 S 0.8 NW 0.0
00:40 18.4 87.1 1020.2 0.1 SSW 0.8 NW 0.0
00:45 18.3 87.3 1020.2 0.1 SSW 0.8 NW 0.0
00:50 18.2 87.6 1020.2 0.1 SSW 0.8 NW 0.0
00:55 18.2 87.7 1020.2 0.1 SSW 0.8 NW 0.0
01:00 18.1 88.2 1020.2 0.1 S 0.8 NW 0.0
01:05 18.1 88.3 1020.2 0.1 S 0.8 NW 0.0
01:10 17.9 88.9 1020.2 0.1 SW 0.8 NW 0.0
01:15 17.9 89.0 1020.2 0.0 SW 0.8 NW 0.0
01:20 17.9 88.8 1020.2 0.0 SSE 0.8 NW 0.0
01:25 17.9 88.7 1020.2 0.0 SE 0.8 NW 0.0
01:30 17.8 90.3 1020.2 0.1 WNW 0.8 NW 0.0
01:35 17.7 90.6 1020.2 0.1 NNW 0.8 NW 0.0
01:40 17.8 89.8 1020.2 0.1 SW 0.8 NW 0.0
01:45 17.8 89.6 1020.2 0.1 SSW 0.8 NW 0.0
01:50 17.7 89.7 1020.2 0.1 SW 0.8 NW 0.0
01:55 17.7 89.7 1020.2 0.1 SW 0.8 NW 0.0
01:55 17.7 89.7 1020.2 0.1 SW 0.8 NW 0.0
01:55 17.7 89.7 1020.2 0.1 SW 0.8 NW 0.0
02:15 17.5 89.4 1020.2 0.1 S 0.8 NW 0.0
02:20 17.6 89.3 1020.2 0.2 SSE 0.8 NW 0.0
02:25 17.7 89.3 1020.2 0.2 SSE 0.8 NW 0.0
02:30 17.4 90.7 1020.2 0.1 SE 0.8 NW 0.0
02:35 17.4 91.0 1020.2 0.1 SE 0.8 NW 0.0
02:40 17.2 91.1 1020.2 0.1 SW 0.8 NW 0.0
02:45 17.2 91.1 1020.2 0.1 SW 0.8 NW 0.0
02:50 17.2 90.3 1020.2 0.1 S 0.8 NW 0.0
02:55 17.2 90.1 1020.2 0.1 SSE 0.8 NW 0.0
03:00 17.2 90.6 1020.2 0.1 S 0.8 NW 0.0
03:05 17.2 90.7 1020.2 0.1 S 0.8 NW 0.0
03:10 17.2 90.9 1020.2 0.1 S 0.8 NW 0.0
03:15 17.1 91.0 1020.2 0.1 SSE 0.8 NW 0.0
03:20 17.1 91.4 1020.2 0.2 S 0.8 NW 0.0
03:25 17.1 91.5 1020.2 0.2 S 0.8 NW 0.0
03:30 17.1 90.7 1020.2 0.1 SSE 0.8 NW 0.0
03:35 17.1 90.5 1020.2 0.1 SSE 0.8 NW 0.0
03:40 17.1 90.1 1020.2 0.2 WNW 0.8 NW 0.0
03:45 17.2 90.0 1020.2 0.2 NW 0.8 NW 0.0
03:50 17.1 90.9 1020.2 0.1 S 0.8 NW 0.0
03:55 17.1 91.1 1020.2 0.1 SSE 0.8 NW 0.0
04:00 17.0 90.8 1020.2 0.0 W 0.8 NW 0.0
04:05 17.0 90.7 1020.2 0.0 WNW 0.8 NW 0.0
04:10 16.9 91.1 1020.2 0.1 SSW 0.8 NW 0.0
04:15 16.9 91.2 1020.2 0.1 SSW 0.8 NW 0.0
04:20 16.7 92.0 1020.2 0.0 WNW 0.8 NW 0.0
04:25 16.6 92.1 1020.2 0.0 NW 0.8 NW 0.0
04:30 16.7 91.3 1020.2 0.1 WNW 0.8 NW 0.0
04:35 16.7 91.1 1020.2 0.1 WNW 0.8 NW 0.0
04:40 16.7 90.8 1020.2 0.2 NNW 0.8 NW 0.0
04:45 16.7 90.8 1020.2 0.2 NNW 0.8 NW 0.0
04:50 16.6 91.0 1020.2 0.1 ENE 0.8 NW 0.0
04:55 16.6 91.1 1020.2 0.1 N 0.8 NW 0.0
05:00 16.6 90.9 1020.2 0.0 SE 0.8 NW 0.0
05:05 16.6 90.9 1020.2 0.0 SSE 0.8 NW 0.0
Máxima 18.5 92.1 1020.2 0.8 NW 0.8 NW 0.0
Mínima 16.6 86.4 1020.2
Total 0.0